Regional Weather Roundup
Issued by NWS

Home | Current Version | Previous Version | Graphics & Text | Print | Product List | Glossary On
Versions: 1 2 3 4 5 6 7 8 9 10 11 12 13 14 15 16 17 18 19 20 21 22 23 24 25 26 27 28 29 30 31 32 33 34 35 36 37 38 39 40 41 42 43 44 45 46 47 48 49 50
000
ASUS43 KBIS 201910
RWRND

NORTH DAKOTA REGIONAL WEATHER ROUNDUP
NATIONAL WEATHER SERVICE BISMARCK ND
200 PM CDT SUN APR 20 2014

NOTE: "FAIR" INDICATES FEW OR NO CLOUDS BELOW 12,000 FEET WITH NO
SIGNIFICANT WEATHER AND/OR OBSTRUCTIONS TO VISIBILITY.


NDZ001>003-009>011-017-202000-
NORTHWEST NORTH DAKOTA

CITY           SKY/WX    TMP DP  RH WIND       PRES   REMARKS
WILLISTON      PTSUNNY   65  30  27 W24G30    29.87R
MINOT          PTSUNNY   68  33  27 S17       29.82F
MINOT AFB      PTSUNNY   66  38  35 S15       29.81F
$$

NDZ018>021-031>035-040>046-202000-
SOUTHWEST NORTH DAKOTA

CITY           SKY/WX    TMP DP  RH WIND       PRES   REMARKS
BISMARCK       PTSUNNY   74  30  19 S15G28    29.88F
DICKINSON      CLOUDY    65  28  24 W21G26    29.90R
GARRISON         N/A     70  36  28 SW16      29.84F
HETTINGER ARPT CLOUDY    69  35  28 W10       29.92S
$$

NDZ004>008-012>016-024-026-027-054-202000-
NORTHEAST NORTH DAKOTA

CITY           SKY/WX    TMP DP  RH WIND       PRES   REMARKS
GRAND FORKS    PTSUNNY   64  40  41 S8G17     29.96F
GRND FRKS AFB  SUNNY     65  40  39 SW13G18   29.96F
DEVILS LAKE    MOSUNNY   64  39  39 SE12      29.91F
$$

NDZ022-023-025-028>030-036>039-047>053-202000-
SOUTHEAST NORTH DAKOTA

CITY           SKY/WX    TMP DP  RH WIND       PRES   REMARKS
FARGO          SUNNY     71  37  28 S12       29.96F
JAMESTOWN      SUNNY     73  34  23 S17       29.92F
$$




USA.gov is the U.S. government's official web portal to all federal, state and local government web resources and services.